Showing default

HULIANWANG DIGUI-18, 62978

Orbit data source: Space-Track

HULIANWANG DIGUI-18, 62978 is a payload satellite owned by Zhongguo Xingwang (CN) in LEO that was launched on Tue, 11 Feb 2025 UTC via a CHANG ZHENG 8A launch vehicle from the Wenchang Satellite Launch Center (WSC). Payload-class satellites include a variety of spacecraft equipped with specific instruments for various scientific and technological missions. These include communications satellites like Starlink; space stations such as the ISS; scientific satellites like the Hubble; Earth observation satellites from companies like Planet Labs, Umbra, and HawkEye 360; GPS; miniature CubeSats for education and research; and military/defense satellites.

Loading next visibility...
Identifier
62978, 2025-030H
Orbit
LEO
Country
Flag of CNCN / PRC
Related business
Manufacturer
CAST
Mission
Operational Civil Communications
Bus & Motor
GUOWANG C, Unknown motor
Mass
~800 kg wet, ~800 kg dry
Launch date (UTC)
2025-02-11 (8 months ago)
Launch vehicle
CHANG ZHENG 8A
Launch site
Wenchang Satellite Launch Center (WSC)
Object type
Payload
Rocket body
Debris
Shape & HBR
Box + 2 Pan, 2.1 m
Radar Cross Section
5.935 m², Large (>1 m²)

Expand to show TLE details & history
Last TLE update: 5 hours ago

TLE from 5 hours ago
0 HULIANWANG DIGUI-18
1 62978U 25030H   25290.94924265 -.00000093  00000-0  66711-4 0  9999
2 62978  50.0082  24.2822 0001112 158.7060 201.3859 13.29324954 33647
Epoch: 2025-10-17T22:46Z
TLE epoch observation values (Epoch: 2025-10-17T22:46:54.564Z)
Latitude
-0.00001°
Longitude
15.86757°
Altitude
1,150.597 km
Speed
7.278 km/s
True Right ascension
01h 37m 07s
True Declination
0° 00' 00"
Sunlit
Object was in full shadow at epoch
Visualization orbit readout
Latitude
Unknown
Longitude
Unknown
Altitude
Unknown
Speed
Unknown
Apparent Right ascension
Unknown
Apparent Declination
Unknown
Sunlit
N/A
Visualization observer readout
Local Sidereal Time
22:19:55
Azimuth
Unknown
Elevation
Unknown
Doppler factor
Unknown
Orbital elements
Apogee altitude
1,150.852 km
Perigee altitude
1,149.178 km
Semi-major axis
7,528.152 km
Eccentricity
0.00011
Inclination
50.0082°
RAAN
24.2822°
Arg. of periapsis
158.706°
True anomaly
201.38125°
Mean anomaly
201.3859°
Eccentric anomaly
201.38358°
Mean motion
3.32285 °/min
Orbital period
108.34 mins
BSTAR
0.000066711
Loading maneuver chart data...
Computing Atmospheric mass density...
Loading historical data...
Loading historical data...
Loading historical data...
Loading historical data...
Loading historical data...
Loading historical data...
Loading historical data...

Documentation

Showing up to 5 results
|